Find Starlink 35058

NORAD ID: 65394 Int'l Des: 2025-191 Owner: SPXS Country: US Constellation: starlink operational
LEOCIRCULARRETROGRADESSO

Live-Position

3D-Globus wird geladen...

Über Starlink 35058

Beschreibung wird geladen...

Nächste Überflüge

Passes for default location (London). Set your location on the main map for personalized predictions.

Höhenverlauf

Loading altitude history...

Zweizeiliger Elementsatz

1 65394U 25191R 26107.13858404 .00004391 00000-0 30827-3 0 9994
2 65394 97.6047 339.4014 0002207 75.9022 284.2449 15.05657297 36056
Epoch: 17. Apr. 2026 • Age: 15 hours

Aktueller Status

Höhe 552.5 km
Geschwindigkeit 7.59 km/s
Subsatellitenpunkt 26.40°N, 42.51°E
Startdatum 30. Aug. 2025
Alter 0.6 years
Typ internet

Technische Details

Klassifizierung Payload
Masse 575.00 kg
Trockenmasse 530.00 kg
Gesamtmasse 575.00 kg
Länge 0.30 m
Durchmesser 4.10 m
Spannweite 29.00 m
Form Box + pan
Hersteller SPXS
Bus-Typ Starlink V2MO
Phasenstatus In Orbit
Besitzer/Staat SPXS/US

Most Searched